Ireland West Airport Knock, Ireland

2:03 AM GMT on February 10, 2016 (GMT +0000)
Connaught

Weather History for EIKN - March, 2013

Change the Weather History Date:

Monday, March 25, 2013

  Actual Average Record
Temperature  
Mean Temperature 34 °F -  
Max Temperature 39 °F - - ()
Min Temperature 30 °F - - ()
Degree Days  
Heating Degree Days 30    
Moisture  
Dew Point 28 °F    
Average Humidity 77    
Maximum Humidity 100    
Minimum Humidity 56    
Precipitation  
Precipitation 0.00 in - - ()
Sea Level Pressure  
Sea Level Pressure 30.06 in    
Wind  
Wind Speed 14 mph ()    
Max Wind Speed 25 mph    
Max Gust Speed 37 mph    
Visibility 6.9 miles    
Events Snow    
T = Trace of Precipitation, MM = Missing Value Source: Averaged Metar Reports

Daily Weather History Graph

Daily Weather History Graph

Search for Another Location

Airport or City:

Trip Planner

Search our weather history database for the weather conditions in past years. The results will help you decide how hot, cold, wet, or windy it might be!

Date:

Astronomy

Mar. 25, 2013 Rise Set
Actual Time 6:25 AM GMT 6:58 PM GMT
Civil Twilight 5:49 AM GMT 7:33 PM GMT
Nautical Twilight 5:07 AM GMT 8:16 PM GMT
Astronomical Twilight 4:22 AM GMT 9:01 PM GMT
Moon 5:05 PM GMT (3/25) 5:15 AM GMT (3/25)
Length of Visible Light 13h 44m
Length of Day
12h 33m
Waxing Gibbous, 96% of the Moon is Illuminated
Mar 25
Waxing Gibbous
Mar 27
Full
Apr 3
Last Quarter
Apr 10
New
Apr 18
First Quarter

Hourly Weather History & Observations

Time (GMT) Temp. Windchill Dew Point Humidity Pressure Visibility Wind Dir Wind Speed Gust Speed Precip Events Conditions
12:00 AM 33 °F - 27 °F 70% 30.06 in - East 17.9 mph - -  
6:00 AM 31 °F - 31 °F 97% 30.10 in 14 mi East 11.2 mph - -   Overcast
6:00 AM 30.2 °F 21.3 °F 30.2 °F 100% 30.04 in 6.2 mi East 10.4 mph - N/A   Mostly Cloudy
6:30 AM 30.2 °F 21.3 °F 30.2 °F 100% 30.04 in 6.2 mi East 10.4 mph - N/A   Mostly Cloudy
7:00 AM 32.0 °F 22.1 °F 30.2 °F 93% 30.04 in 6.2 mi East 13.8 mph - N/A   Mostly Cloudy
7:30 AM 32.0 °F 21.2 °F 32.0 °F 100% 30.04 in 6.2 mi East 16.1 mph - N/A   Mostly Cloudy
8:00 AM 32.0 °F 22.5 °F 32.0 °F 100% 30.06 in 6.2 mi East 12.7 mph - N/A   Mostly Cloudy
8:30 AM 32.0 °F 21.6 °F 30.2 °F 93% 30.06 in 6.2 mi East 15.0 mph - N/A Snow Light Snow Showers
9:00 AM 32.0 °F 21.2 °F 32.0 °F 100% 30.06 in 6.2 mi East 16.1 mph - N/A   Mostly Cloudy
9:30 AM 33.8 °F 23.5 °F 30.2 °F 87% 30.06 in 6.2 mi East 16.1 mph - N/A   Mostly Cloudy
10:00 AM 33.8 °F 22.5 °F 28.4 °F 81% 30.06 in 6.2 mi East 19.6 mph - N/A   Mostly Cloudy
10:30 AM 35.6 °F 24.8 °F 26.6 °F 70% 30.06 in 6.2 mi East 19.6 mph 32.2 mph N/A   Mostly Cloudy
11:00 AM 35.6 °F 25.2 °F 26.6 °F 70% 30.06 in 6.2 mi East 18.4 mph 31.1 mph N/A   Mostly Cloudy
11:30 AM 37.4 °F 26.9 °F 23.0 °F 56% 30.06 in 6.2 mi East 20.7 mph - N/A   Mostly Cloudy
12:00 PM 36 °F - 26 °F 56% 30.10 in 17 mi East 24.6 mph - -   Partly Cloudy
12:00 PM 35.6 °F 23.4 °F 26.6 °F 70% 30.06 in 6.2 mi East 25.3 mph 36.8 mph N/A   Mostly Cloudy
12:30 PM 35.6 °F 25.5 °F 28.4 °F 75% 30.06 in 6.2 mi East 17.3 mph - N/A   Mostly Cloudy
1:00 PM 35.6 °F 24.8 °F 26.6 °F 70% 30.06 in 6.2 mi East 19.6 mph 33.4 mph N/A   Mostly Cloudy
1:30 PM 37.4 °F 27.5 °F 28.4 °F 70% 30.06 in 6.2 mi East 18.4 mph - N/A   Mostly Cloudy
2:00 PM 37.4 °F 27.5 °F 26.6 °F 65% 30.06 in 6.2 mi East 18.4 mph 29.9 mph N/A   Mostly Cloudy
2:30 PM 37.4 °F 28.2 °F 26.6 °F 65% 30.06 in 6.2 mi East 16.1 mph - N/A   Mostly Cloudy
3:00 PM 37.4 °F 27.2 °F 26.6 °F 65% 30.04 in 6.2 mi East 19.6 mph - N/A   Mostly Cloudy
3:30 PM 39.2 °F 30.2 °F 26.6 °F 61% 30.04 in 6.2 mi East 17.3 mph - N/A   Mostly Cloudy
4:00 PM 37.4 °F 27.8 °F 26.6 °F 65% 30.04 in 6.2 mi East 17.3 mph - N/A   Mostly Cloudy
4:30 PM 35.6 °F 25.9 °F 26.6 °F 70% 30.04 in 6.2 mi East 16.1 mph - N/A   Mostly Cloudy
5:00 PM 35.6 °F 25.9 °F 26.6 °F 70% 30.04 in 6.2 mi East 16.1 mph 29.9 mph N/A   Mostly Cloudy
6:00 PM 35 °F - 26 °F 59% 30.11 in 25 mi East 15.7 mph - -   Mostly Cloudy